Location: La Fredeussais
(48.1780°N, 1.3980°W)
Time: 09:10:03
(UTC+00:00)

Cosmos 1437 - Pass Details

Date: 09 May 2021
Orbit: 338 x 344 km, 81.2° (Epoch: 12 June)

Event Time Altitude Azimuth Distance (km) Brightness Sun altitude
Exits shadow 21:49:25 20° 231° (SW) 898 4.3 -17.9°
Maximum altitude 21:50:55 35° 286° (WNW) 602 3.9 -18.0°
Drops below altitude 10° 21:53:37 10° 355° (N) 1,336 6.2 -18.2°
Sets 21:55:41 0° 4° (N) 2,185 7.3 -18.4°
